• In Hungary
  • List of Countries
  • For 7 days
  • Water Temperature
  • Satellite Maps
  • Weather Map
  • News
  • Weather Widgets
  • user-avatar
    Login

    Hourly Weather Galdowo

    Today, 21 October, Saturday

    Time Temperature Precipitation Wind Pressure Humidity
    00:00 +11°C° 0 mm 3 mps 753 mmHg 91%
    01:00 +11°C° 0 mm 3 mps 753 mmHg 90%
    02:00 +11°C° 0.3 mm 3 mps 752 mmHg 91%
    03:00 +11°C° 0.3 mm 3 mps 752 mmHg 91%
    04:00 +11°C° 0.3 mm 3 mps 752 mmHg 92%
    05:00 +11°C° 0.2 mm 3 mps 752 mmHg 92%
    06:00 +12°C° 0.2 mm 2 mps 752 mmHg 92%
    07:00 +12°C° 0.2 mm 2 mps 752 mmHg 92%
    08:00 +12°C° 0.1 mm 2 mps 752 mmHg 90%
    09:00 +13°C° 0.1 mm 2 mps 752 mmHg 87%
    10:00 +14°C° 0.1 mm 2 mps 752 mmHg 85%
    11:00 +14°C° 0.1 mm 2 mps 752 mmHg 83%
    12:00 +14°C° 0.1 mm 2 mps 752 mmHg 81%
    13:00 +15°C° 0.1 mm 2 mps 752 mmHg 80%
    14:00 +14°C° 0.1 mm 2 mps 752 mmHg 82%
    15:00 +14°C° 0.1 mm 2 mps 752 mmHg 84%
    16:00 +14°C° 0.1 mm 2 mps 752 mmHg 86%
    17:00 +13°C° 0 mm 2 mps 752 mmHg 88%
    18:00 +12°C° 0 mm 1 mps 753 mmHg 91%
    19:00 +12°C° 0 mm 1 mps 753 mmHg 93%
    20:00 +11°C° 0 mm 1 mps 753 mmHg 93%
    21:00 +11°C° 0 mm 1 mps 753 mmHg 94%
    22:00 +10°C° 0 mm 2 mps 754 mmHg 94%
    23:00 +10°C° 0 mm 2 mps 754 mmHg 94%

    Tomorrow, 22 October, Sunday

    Time Temperature Precipitation Wind Pressure Humidity
    00:00 +10°C° 0 mm 3 mps 754 mmHg 94%
    01:00 +10°C° 0 mm 3 mps 754 mmHg 93%
    02:00 +9°C° 0 mm 3 mps 754 mmHg 93%
    03:00 +9°C° 0 mm 3 mps 754 mmHg 92%
    04:00 +9°C° 0 mm 3 mps 753 mmHg 92%
    05:00 +8°C° 0 mm 4 mps 753 mmHg 91%
    06:00 +8°C° 0 mm 4 mps 753 mmHg 91%
    07:00 +8°C° 0 mm 4 mps 753 mmHg 91%
    08:00 +8°C° 0 mm 4 mps 753 mmHg 89%
    09:00 +10°C° 0 mm 4 mps 753 mmHg 87%
    10:00 +10°C° 0 mm 4 mps 753 mmHg 85%
    11:00 +10°C° 0.1 mm 4 mps 753 mmHg 85%
    12:00 +10°C° 0.1 mm 4 mps 753 mmHg 84%
    13:00 +11°C° 0.1 mm 4 mps 753 mmHg 84%
    14:00 +10°C° 0.6 mm 4 mps 752 mmHg 86%
    15:00 +10°C° 0.6 mm 3 mps 752 mmHg 88%
    16:00 +10°C° 0.6 mm 3 mps 752 mmHg 90%
    17:00 +10°C° 0.5 mm 3 mps 752 mmHg 91%
    18:00 +9°C° 0.5 mm 3 mps 752 mmHg 91%
    19:00 +9°C° 0.5 mm 3 mps 752 mmHg 92%
    20:00 +9°C° 0.3 mm 3 mps 752 mmHg 93%
    21:00 +9°C° 0.3 mm 2 mps 752 mmHg 93%
    22:00 +9°C° 0.3 mm 2 mps 752 mmHg 94%
    23:00 +9°C° 0 mm 2 mps 752 mmHg 94%

    Day after tomorrow, 23 October, Monday

    Time Temperature Precipitation Wind Pressure Humidity
    00:00 +10°C° 0 mm 1 mps 752 mmHg 95%
    01:00 +10°C° 0 mm 1 mps 752 mmHg 95%
    02:00 +10°C° 0.1 mm 1 mps 752 mmHg 96%
    03:00 +10°C° 0.1 mm 1 mps 751 mmHg 96%
    04:00 +10°C° 0.1 mm 1 mps 751 mmHg 96%
    05:00 +10°C° 0.1 mm 1 mps 751 mmHg 96%
    06:00 +9°C° 0.1 mm 1 mps 751 mmHg 96%
    07:00 +9°C° 0.1 mm 1 mps 751 mmHg 96%
    08:00 +10°C° 0.2 mm 1 mps 752 mmHg 94%
    09:00 +10°C° 0.2 mm 1 mps 752 mmHg 92%
    10:00 +11°C° 0.2 mm 1 mps 752 mmHg 90%
    11:00 +11°C° 0.3 mm 1 mps 752 mmHg 88%
    12:00 +10°C° 0.3 mm 2 mps 752 mmHg 87%
    13:00 +12°C° 0.3 mm 2 mps 753 mmHg 85%
    14:00 +10°C° 0.3 mm 2 mps 753 mmHg 87%
    15:00 +11°C° 0.3 mm 1 mps 753 mmHg 88%
    16:00 +11°C° 0.3 mm 1 mps 753 mmHg 90%
    17:00 +10°C° 0.3 mm 1 mps 753 mmHg 91%
    18:00 +9°C° 0.3 mm 2 mps 754 mmHg 91%
    19:00 +9°C° 0.3 mm 2 mps 754 mmHg 92%
    20:00 +8°C° 0.2 mm 2 mps 755 mmHg 92%
    21:00 +8°C° 0.2 mm 2 mps 755 mmHg 92%
    22:00 +8°C° 0.2 mm 2 mps 755 mmHg 92%
    23:00 +8°C° 0.2 mm 2 mps 756 mmHg 92%

    24 October, Tuesday

    Time Temperature Precipitation Wind Pressure Humidity
    00:00 +8°C° 0.2 mm 2 mps 756 mmHg 92%
    01:00 +7°C° 0.2 mm 2 mps 757 mmHg 92%
    02:00 +7°C° 0.1 mm 3 mps 757 mmHg 91%
    03:00 +7°C° 0.1 mm 3 mps 757 mmHg 90%
    04:00 +7°C° 0.1 mm 3 mps 757 mmHg 90%
    05:00 +7°C° 0 mm 3 mps 758 mmHg 89%
    06:00 +7°C° 0 mm 3 mps 758 mmHg 88%
    07:00 +7°C° 0 mm 3 mps 759 mmHg 87%
    08:00 +7°C° 0 mm 3 mps 759 mmHg 85%
    09:00 +7°C° 0 mm 3 mps 760 mmHg 83%
    10:00 +7°C° 0 mm 3 mps 760 mmHg 81%
    11:00 +8°C° 0 mm 3 mps 760 mmHg 80%
    12:00 +8°C° 0 mm 3 mps 760 mmHg 79%
    13:00 +8°C° 0 mm 3 mps 760 mmHg 78%
    14:00 +8°C° 0.1 mm 3 mps 761 mmHg 79%
    15:00 +7°C° 0.1 mm 3 mps 761 mmHg 80%
    16:00 +7°C° 0.1 mm 3 mps 761 mmHg 81%
    17:00 +7°C° 0 mm 3 mps 761 mmHg 81%
    18:00 +7°C° 0 mm 3 mps 762 mmHg 82%
    19:00 +7°C° 0 mm 3 mps 762 mmHg 82%
    20:00 +5°C° 0 mm 3 mps 762 mmHg 82%
    21:00 +5°C° 0 mm 3 mps 762 mmHg 81%
    22:00 +5°C° 0 mm 3 mps 762 mmHg 81%
    23:00 +5°C° 0 mm 3 mps 763 mmHg 80%

    25 October, Wednesday

    Time Temperature Precipitation Wind Pressure Humidity
    00:00 +4°C° 0 mm 3 mps 763 mmHg 80%
    01:00 +4°C° 0 mm 3 mps 763 mmHg 80%
    02:00 +3°C° 0 mm 3 mps 763 mmHg 80%
    03:00 +3°C° 0 mm 3 mps 763 mmHg 80%
    04:00 +3°C° 0 mm 3 mps 763 mmHg 80%
    05:00 +2°C° 0 mm 3 mps 763 mmHg 80%
    06:00 +1°C° 0 mm 4 mps 763 mmHg 79%
    07:00 +1°C° 0 mm 4 mps 763 mmHg 79%
    08:00 +3°C° 0 mm 4 mps 764 mmHg 73%
    09:00 +4°C° 0 mm 4 mps 764 mmHg 67%
    10:00 +5°C° 0 mm 5 mps 764 mmHg 62%
    11:00 +6°C° 0 mm 5 mps 764 mmHg 59%
    12:00 +6°C° 0 mm 5 mps 764 mmHg 56%
    13:00 +7°C° 0 mm 5 mps 763 mmHg 54%
    14:00 +6°C° 0 mm 5 mps 763 mmHg 56%
    15:00 +6°C° 0 mm 4 mps 763 mmHg 58%
    16:00 +5°C° 0 mm 4 mps 763 mmHg 60%
    17:00 +5°C° 0 mm 4 mps 763 mmHg 62%
    18:00 +4°C° 0 mm 4 mps 763 mmHg 63%
    19:00 +3°C° 0 mm 5 mps 763 mmHg 64%
    20:00 +3°C° 0 mm 5 mps 763 mmHg 64%
    21:00 +2°C° 0 mm 5 mps 763 mmHg 65%
    22:00 +2°C° 0 mm 5 mps 763 mmHg 65%
    23:00 +2°C° 0 mm 5 mps 763 mmHg 65%

    26 October, Thursday

    Time Temperature Precipitation Wind Pressure Humidity
    00:00 +2°C° 0 mm 5 mps 763 mmHg 65%
    01:00 +2°C° 0 mm 5 mps 763 mmHg 65%
    02:00 +2°C° 0 mm 5 mps 762 mmHg 64%
    03:00 +2°C° 0 mm 5 mps 762 mmHg 64%
    04:00 +2°C° 0 mm 5 mps 762 mmHg 64%
    05:00 +2°C° 0.4 mm 5 mps 761 mmHg 67%
    06:00 +2°C° 0.4 mm 5 mps 761 mmHg 69%
    07:00 +2°C° 0.4 mm 6 mps 761 mmHg 71%
    08:00 +2°C° 0.7 mm 6 mps 761 mmHg 74%
    09:00 +2°C° 0.7 mm 6 mps 761 mmHg 76%
    10:00 +2°C° 0.7 mm 6 mps 761 mmHg 78%
    11:00 +2°C° 0 mm 5 mps 761 mmHg 78%
    12:00 +4°C° 0 mm 4 mps 760 mmHg 78%
    13:00 +4°C° 0 mm 4 mps 760 mmHg 78%
    14:00 +4°C° 0 mm 3 mps 760 mmHg 79%
    15:00 +4°C° 0 mm 3 mps 760 mmHg 81%
    16:00 +6°C° 0 mm 2 mps 760 mmHg 83%
    17:00 +6°C° 0 mm 2 mps 760 mmHg 85%
    18:00 +7°C° 0 mm 1 mps 760 mmHg 87%
    19:00 +6°C° 0 mm 1 mps 761 mmHg 89%
    20:00 +7°C° 0 mm 1 mps 761 mmHg 90%
    21:00 +7°C° 0 mm 1 mps 761 mmHg 92%
    22:00 +7°C° 0 mm 1 mps 761 mmHg 93%
    23:00 +7°C° 0 mm 1 mps 761 mmHg 94%
    Show more